UAL2218 KIAH-KMCO

Flight info

Callsign UAL2218
Flight time 2h 0m
Altitude 37000
Route GUMBY3 LLA LEV Y280 CHRGE PRICY4
Aircraft B738/M-SDE2E3FGHIRWXY/LB1

Departure

Time 2026-04-25 02:33
Airport George Bush Intercontinental Airport (KIAH)

Arrival

Time 2026-04-25 04:33
Airport Orlando International Airport (KMCO)
Time Latitude Longitude Altitude Speed Heading
2026-04-25 02:05 29.98386 -95.33582 100 ft 0 kts 59°
2026-04-25 02:20 29.98383 -95.33588 100 ft 2 kts 58°
2026-04-25 02:20 29.98376 -95.33604 100 ft 2 kts 75°
2026-04-25 02:21 29.98374 -95.33620 100 ft 2 kts 94°
2026-04-25 02:21 29.98378 -95.33637 100 ft 2 kts 114°
2026-04-25 02:21 29.98385 -95.33651 100 ft 2 kts 134°
2026-04-25 02:21 29.98397 -95.33661 100 ft 2 kts 153°
2026-04-25 02:22 29.98411 -95.33667 100 ft 2 kts 173°
2026-04-25 02:22 29.98418 -95.33667 100 ft 1 kts 183°
2026-04-25 02:22 29.98421 -95.33667 100 ft 0 kts 180°
2026-04-25 02:24 29.98418 -95.33667 100 ft 2 kts 180°
2026-04-25 02:24 29.98385 -95.33667 100 ft 8 kts 180°
2026-04-25 02:25 29.98323 -95.33671 100 ft 10 kts 191°
2026-04-25 02:25 29.98258 -95.33705 98 ft 12 kts 232°
2026-04-25 02:25 29.98245 -95.33787 99 ft 12 kts 269°
2026-04-25 02:25 29.98244 -95.33888 100 ft 14 kts 270°
2026-04-25 02:26 29.98252 -95.33991 100 ft 14 kts 285°
2026-04-25 02:26 29.98283 -95.34082 100 ft 13 kts 290°
2026-04-25 02:26 29.98298 -95.34177 100 ft 12 kts 269°
2026-04-25 02:26 29.98297 -95.34267 100 ft 12 kts 269°
2026-04-25 02:27 29.98298 -95.34354 100 ft 12 kts 275°
2026-04-25 02:27 29.98315 -95.34454 100 ft 15 kts 283°
2026-04-25 02:27 29.98325 -95.34576 98 ft 18 kts 269°
2026-04-25 02:27 29.98323 -95.34722 97 ft 20 kts 270°
2026-04-25 02:28 29.98322 -95.34868 97 ft 19 kts 270°
2026-04-25 02:28 29.98321 -95.35010 97 ft 18 kts 270°
2026-04-25 02:28 29.98322 -95.35113 97 ft 10 kts 273°
2026-04-25 02:28 29.98354 -95.35181 97 ft 13 kts 321°
2026-04-25 02:29 29.98434 -95.35236 97 ft 16 kts 332°
2026-04-25 02:29 29.98531 -95.35297 97 ft 18 kts 333°
2026-04-25 02:29 29.98644 -95.35364 97 ft 21 kts 332°
2026-04-25 02:29 29.98754 -95.35435 97 ft 12 kts 330°
2026-04-25 02:30 29.98797 -95.35464 97 ft 9 kts 330°
2026-04-25 02:30 29.98857 -95.35506 97 ft 12 kts 317°
2026-04-25 02:30 29.98869 -95.35580 97 ft 10 kts 255°
2026-04-25 02:30 29.98838 -95.35656 97 ft 12 kts 241°
2026-04-25 02:31 29.98800 -95.35734 97 ft 9 kts 242°
2026-04-25 02:31 29.98780 -95.35767 97 ft 4 kts 206°
2026-04-25 02:31 29.98743 -95.35758 97 ft 8 kts 160°
2026-04-25 02:31 29.98688 -95.35726 97 ft 11 kts 151°
2026-04-25 02:32 29.98601 -95.35671 97 ft 31 kts 152°
2026-04-25 02:32 29.98259 -95.35458 97 ft 92 kts 152°
2026-04-25 02:32 29.97606 -95.35055 96 ft 143 kts 152°
2026-04-25 02:32 29.96708 -95.34508 195 ft 174 kts 152°
2026-04-25 02:33 29.95765 -95.33926 845 ft 170 kts 153°
2026-04-25 02:33 29.94870 -95.33192 1432 ft 175 kts 138°
2026-04-25 02:33 29.94230 -95.32139 1940 ft 185 kts 118°
2026-04-25 02:33 29.93863 -95.30759 2109 ft 214 kts 104°
2026-04-25 02:34 29.93640 -95.29170 2547 ft 227 kts 98°
2026-04-25 02:34 29.93636 -95.27430 2792 ft 246 kts 88°
2026-04-25 02:34 29.93708 -95.25618 2936 ft 251 kts 90°
2026-04-25 02:34 29.93808 -95.23766 3070 ft 250 kts 88°
2026-04-25 02:35 29.93861 -95.21958 3202 ft 250 kts 91°
2026-04-25 02:35 29.93859 -95.20116 3338 ft 251 kts 92°
2026-04-25 02:35 29.93856 -95.18279 3482 ft 266 kts 91°
2026-04-25 02:35 29.93865 -95.16267 3611 ft 273 kts 90°
2026-04-25 02:36 29.93888 -95.14276 3748 ft 273 kts 90°
2026-04-25 02:36 29.93916 -95.12289 3886 ft 274 kts 90°
2026-04-25 02:36 29.93945 -95.10269 4029 ft 274 kts 90°
2026-04-25 02:36 29.93942 -95.08248 4275 ft 276 kts 94°
2026-04-25 02:37 29.93670 -95.06271 4620 ft 278 kts 105°
2026-04-25 02:37 29.93133 -95.04317 4941 ft 279 kts 110°
2026-04-25 02:37 29.92508 -95.02371 5329 ft 287 kts 111°
2026-04-25 02:37 29.91871 -95.00394 5993 ft 289 kts 110°
2026-04-25 02:38 29.91252 -94.98415 6678 ft 292 kts 109°
2026-04-25 02:38 29.90629 -94.96373 7292 ft 297 kts 109°
2026-04-25 02:38 29.90004 -94.94296 7962 ft 300 kts 109°
2026-04-25 02:38 29.89380 -94.92203 8546 ft 306 kts 109°
2026-04-25 02:39 29.88748 -94.90075 9211 ft 309 kts 109°
2026-04-25 02:39 29.88113 -94.87936 9837 ft 314 kts 109°
2026-04-25 02:39 29.87470 -94.85770 10436 ft 321 kts 109°
2026-04-25 02:39 29.86804 -94.83528 10774 ft 337 kts 109°
2026-04-25 02:40 29.86104 -94.81175 11122 ft 353 kts 110°
2026-04-25 02:40 29.85357 -94.78661 11478 ft 368 kts 110°
2026-04-25 02:40 29.84564 -94.75994 11799 ft 384 kts 110°
2026-04-25 02:40 29.83734 -94.73208 12128 ft 399 kts 110°
2026-04-25 02:41 29.82869 -94.70299 12719 ft 406 kts 110°
2026-04-25 02:41 29.82010 -94.67413 13381 ft 411 kts 110°
2026-04-25 02:41 29.81176 -94.64615 14031 ft 415 kts 109°
2026-04-25 02:41 29.80309 -94.61704 14701 ft 419 kts 109°
2026-04-25 02:42 29.79428 -94.58752 15383 ft 424 kts 109°
2026-04-25 02:42 29.78534 -94.55763 16009 ft 429 kts 109°
2026-04-25 02:42 29.77637 -94.52766 16766 ft 431 kts 109°
2026-04-25 02:42 29.76735 -94.49753 17398 ft 436 kts 109°
2026-04-25 02:43 29.75829 -94.46735 17999 ft 441 kts 109°
2026-04-25 02:43 29.74908 -94.43675 18542 ft 447 kts 109°
2026-04-25 02:43 29.73985 -94.40611 19130 ft 452 kts 109°
2026-04-25 02:43 29.72990 -94.37240 19669 ft 458 kts 107°
2026-04-25 02:44 29.72197 -94.33987 20220 ft 462 kts 102°
2026-04-25 02:44 29.71594 -94.30624 20737 ft 467 kts 99°
2026-04-25 02:44 29.71104 -94.27093 21292 ft 471 kts 96°
2026-04-25 02:44 29.70682 -94.23471 21827 ft 475 kts 95°
2026-04-25 02:45 29.70307 -94.19916 22335 ft 479 kts 94°
2026-04-25 02:45 29.69959 -94.16507 22795 ft 483 kts 94°
2026-04-25 02:45 29.69583 -94.12816 23317 ft 487 kts 94°
2026-04-25 02:45 29.69185 -94.08970 23789 ft 492 kts 94°
2026-04-25 02:46 29.68779 -94.05074 24287 ft 497 kts 94°
2026-04-25 02:46 29.68490 -94.01070 24797 ft 500 kts 90°
2026-04-25 02:46 29.68362 -93.97091 25284 ft 503 kts 88°
2026-04-25 02:46 29.68327 -93.93158 25805 ft 506 kts 87°
2026-04-25 02:47 29.68335 -93.89130 26215 ft 511 kts 86°
2026-04-25 02:47 29.68357 -93.85132 26726 ft 514 kts 86°
2026-04-25 02:47 29.68375 -93.81032 27131 ft 519 kts 86°
2026-04-25 02:47 29.68381 -93.76873 27535 ft 524 kts 87°
2026-04-25 02:48 29.68370 -93.72839 28185 ft 522 kts 87°
2026-04-25 02:48 29.68345 -93.68744 28824 ft 521 kts 87°
2026-04-25 02:48 29.68311 -93.64651 29386 ft 521 kts 87°
2026-04-25 02:48 29.68270 -93.60603 29931 ft 521 kts 87°
2026-04-25 02:49 29.68228 -93.56804 30466 ft 521 kts 87°
2026-04-25 02:49 29.68182 -93.52979 30963 ft 520 kts 87°
2026-04-25 02:49 29.68133 -93.48995 31401 ft 522 kts 87°
2026-04-25 02:49 29.68081 -93.44830 31896 ft 521 kts 87°
2026-04-25 02:50 29.68027 -93.40552 32369 ft 522 kts 88°
2026-04-25 02:50 29.67974 -93.36442 32796 ft 523 kts 88°
2026-04-25 02:50 29.67923 -93.32608 33220 ft 523 kts 88°
2026-04-25 02:50 29.67871 -93.28838 33600 ft 523 kts 88°
2026-04-25 02:51 29.67820 -93.25147 33980 ft 522 kts 88°
2026-04-25 02:51 29.67768 -93.21429 34358 ft 522 kts 88°
2026-04-25 02:51 29.67715 -93.17748 34651 ft 524 kts 88°
2026-04-25 02:51 29.67661 -93.14034 34961 ft 524 kts 88°
2026-04-25 02:52 29.67607 -93.10351 35281 ft 525 kts 88°
2026-04-25 02:52 29.67550 -93.06570 35645 ft 524 kts 88°
2026-04-25 02:52 29.67491 -93.02711 35974 ft 524 kts 88°
2026-04-25 02:52 29.67433 -92.99039 36280 ft 524 kts 88°
2026-04-25 02:53 29.67376 -92.95377 36555 ft 525 kts 88°
2026-04-25 02:53 29.67317 -92.91678 36788 ft 526 kts 88°
2026-04-25 02:53 29.67256 -92.87948 36865 ft 529 kts 88°
2026-04-25 02:54 29.67127 -92.80269 36870 ft 524 kts 88°
2026-04-25 02:54 29.66993 -92.72720 36868 ft 526 kts 88°
2026-04-25 02:55 29.66857 -92.65131 36869 ft 524 kts 88°
2026-04-25 02:55 29.66703 -92.56878 36871 ft 523 kts 88°
2026-04-25 02:56 29.66550 -92.48837 36873 ft 524 kts 88°
2026-04-25 02:56 29.66354 -92.41438 36875 ft 522 kts 90°
2026-04-25 02:57 29.65639 -92.33922 36876 ft 527 kts 98°
2026-04-25 02:57 29.64357 -92.26727 36883 ft 527 kts 102°
2026-04-25 02:58 29.62827 -92.19522 36884 ft 526 kts 103°
2026-04-25 02:58 29.61257 -92.12360 36882 ft 525 kts 103°
2026-04-25 02:59 29.59699 -92.05183 36884 ft 526 kts 103°
2026-04-25 02:59 29.58177 -91.98059 36887 ft 524 kts 102°
2026-04-25 03:00 29.56661 -91.90876 36882 ft 525 kts 102°
2026-04-25 03:00 29.55145 -91.83662 36889 ft 526 kts 102°
2026-04-25 03:01 29.53641 -91.76512 36887 ft 525 kts 102°
2026-04-25 03:01 29.52138 -91.69376 36891 ft 526 kts 102°
2026-04-25 03:02 29.50615 -91.62167 36888 ft 525 kts 102°
2026-04-25 03:02 29.49109 -91.55054 36880 ft 524 kts 102°
2026-04-25 03:03 29.47596 -91.47939 36887 ft 523 kts 102°
2026-04-25 03:03 29.46060 -91.40736 36896 ft 525 kts 102°
2026-04-25 03:04 29.44528 -91.33574 36896 ft 525 kts 103°
2026-04-25 03:04 29.42932 -91.26138 36899 ft 526 kts 103°
2026-04-25 03:05 29.40577 -91.15196 36900 ft 524 kts 103°
2026-04-25 03:05 29.38973 -91.07774 36904 ft 525 kts 103°
2026-04-25 03:06 29.37378 -91.00411 36908 ft 525 kts 103°
2026-04-25 03:06 29.35835 -90.93313 36905 ft 524 kts 103°
2026-04-25 03:07 29.34307 -90.86297 36907 ft 525 kts 103°
2026-04-25 03:07 29.32760 -90.79218 36908 ft 525 kts 103°
2026-04-25 03:08 29.31212 -90.72150 36902 ft 522 kts 102°
2026-04-25 03:08 29.29642 -90.65002 36903 ft 523 kts 102°
2026-04-25 03:09 29.28087 -90.57941 36896 ft 524 kts 102°
2026-04-25 03:09 29.26545 -90.50967 36891 ft 524 kts 102°
2026-04-25 03:10 29.24968 -90.43838 36900 ft 523 kts 102°
2026-04-25 03:10 29.23389 -90.36726 36897 ft 523 kts 103°
2026-04-25 03:11 29.21782 -90.29504 36897 ft 523 kts 103°
2026-04-25 03:11 29.20175 -90.22307 36900 ft 524 kts 103°
2026-04-25 03:12 29.18562 -90.15104 36895 ft 522 kts 103°
2026-04-25 03:12 29.16950 -90.07889 36901 ft 523 kts 102°
2026-04-25 03:13 29.15439 -90.00650 36903 ft 525 kts 101°
2026-04-25 03:13 29.13996 -89.93453 36908 ft 523 kts 101°
2026-04-25 03:14 29.12552 -89.86231 36909 ft 524 kts 101°
2026-04-25 03:14 29.11096 -89.79018 36908 ft 523 kts 101°
2026-04-25 03:15 29.09633 -89.71849 36905 ft 524 kts 101°
2026-04-25 03:15 29.08133 -89.64558 36907 ft 524 kts 101°
2026-04-25 03:16 29.06640 -89.57339 36906 ft 522 kts 101°
2026-04-25 03:16 29.05142 -89.50112 36906 ft 523 kts 101°
2026-04-25 03:17 29.03618 -89.42785 36908 ft 523 kts 101°
2026-04-25 03:17 29.02093 -89.35472 36907 ft 521 kts 101°
2026-04-25 03:18 29.00561 -89.28150 36903 ft 522 kts 102°
2026-04-25 03:18 28.99038 -89.20890 36904 ft 523 kts 102°
2026-04-25 03:19 28.97499 -89.13570 36905 ft 523 kts 102°
2026-04-25 03:19 28.95951 -89.06231 36913 ft 523 kts 102°
2026-04-25 03:20 28.94409 -88.98940 36921 ft 522 kts 102°
2026-04-25 03:20 28.92857 -88.91625 36926 ft 523 kts 102°
2026-04-25 03:21 28.91306 -88.84336 36926 ft 524 kts 102°
2026-04-25 03:21 28.89743 -88.77010 36930 ft 522 kts 102°
2026-04-25 03:22 28.88188 -88.69755 36932 ft 523 kts 102°
2026-04-25 03:22 28.86414 -88.62558 36931 ft 523 kts 106°
2026-04-25 03:23 28.84398 -88.55415 36934 ft 523 kts 107°
2026-04-25 03:23 28.82340 -88.48316 36934 ft 523 kts 107°
2026-04-25 03:24 28.80289 -88.41181 36929 ft 524 kts 107°
2026-04-25 03:24 28.78265 -88.34049 36924 ft 523 kts 107°
2026-04-25 03:25 28.76261 -88.26923 36925 ft 524 kts 107°
2026-04-25 03:25 28.74262 -88.19788 36926 ft 523 kts 106°
2026-04-25 03:26 28.72257 -88.12639 36925 ft 524 kts 107°
2026-04-25 03:26 28.70238 -88.05453 36925 ft 523 kts 107°
2026-04-25 03:27 28.68221 -87.98299 36927 ft 523 kts 107°
2026-04-25 03:27 28.66209 -87.91177 36928 ft 522 kts 107°
2026-04-25 03:28 28.64189 -87.84041 36928 ft 523 kts 106°
2026-04-25 03:28 28.62170 -87.76926 36931 ft 522 kts 106°
2026-04-25 03:29 28.60135 -87.69770 36931 ft 522 kts 107°
2026-04-25 03:29 28.58112 -87.62676 36930 ft 522 kts 107°
2026-04-25 03:30 28.56070 -87.55536 36932 ft 521 kts 106°
2026-04-25 03:30 28.54032 -87.48418 36931 ft 522 kts 107°
2026-04-25 03:31 28.52008 -87.41368 36932 ft 522 kts 107°
2026-04-25 03:31 28.49960 -87.34248 36930 ft 521 kts 107°
2026-04-25 03:32 28.47928 -87.27199 36928 ft 522 kts 107°
2026-04-25 03:32 28.45897 -87.20164 36925 ft 521 kts 107°
2026-04-25 03:33 28.43844 -87.13068 36926 ft 523 kts 107°
2026-04-25 03:33 28.41802 -87.06033 36927 ft 522 kts 107°
2026-04-25 03:34 28.39758 -86.99002 36928 ft 521 kts 107°
2026-04-25 03:34 28.37696 -86.91926 36928 ft 523 kts 107°
2026-04-25 03:35 28.35637 -86.84878 36926 ft 521 kts 107°
2026-04-25 03:35 28.33585 -86.77860 36928 ft 521 kts 107°
2026-04-25 03:36 28.31525 -86.70837 36928 ft 521 kts 107°
2026-04-25 03:36 28.29463 -86.63791 36925 ft 522 kts 107°
2026-04-25 03:37 28.27402 -86.56728 36924 ft 521 kts 107°
2026-04-25 03:37 28.25352 -86.49712 36925 ft 523 kts 107°
2026-04-25 03:38 28.23271 -86.42607 36925 ft 523 kts 107°
2026-04-25 03:38 28.21194 -86.35532 36924 ft 523 kts 107°
2026-04-25 03:39 28.19122 -86.28492 36924 ft 521 kts 107°
2026-04-25 03:39 28.17034 -86.21413 36927 ft 523 kts 108°
2026-04-25 03:40 28.14960 -86.14399 36926 ft 524 kts 107°
2026-04-25 03:40 28.12867 -86.07334 36934 ft 523 kts 108°
2026-04-25 03:41 28.10772 -86.00280 36943 ft 524 kts 107°
2026-04-25 03:41 28.08678 -85.93242 36946 ft 523 kts 108°
2026-04-25 03:42 28.06573 -85.86185 36945 ft 524 kts 107°
2026-04-25 03:42 28.04467 -85.79137 36944 ft 524 kts 107°
2026-04-25 03:43 28.02378 -85.72163 36945 ft 522 kts 107°
2026-04-25 03:43 28.00200 -85.64903 36945 ft 523 kts 107°
2026-04-25 03:44 27.97874 -85.57168 36944 ft 521 kts 107°
2026-04-25 03:44 27.95565 -85.49499 36945 ft 523 kts 107°
2026-04-25 03:45 27.93303 -85.42011 36945 ft 524 kts 107°
2026-04-25 03:45 27.91001 -85.34412 36945 ft 523 kts 108°
2026-04-25 03:46 27.88718 -85.26749 36944 ft 521 kts 105°
2026-04-25 03:46 27.87043 -85.19138 36945 ft 520 kts 99°
2026-04-25 03:47 27.85736 -85.11249 36945 ft 520 kts 97°
2026-04-25 03:47 27.84530 -85.03435 36946 ft 518 kts 97°
2026-04-25 03:48 27.83314 -84.95770 36946 ft 519 kts 97°
2026-04-25 03:48 27.82120 -84.88215 36946 ft 518 kts 95°
2026-04-25 03:49 27.81473 -84.80267 36946 ft 513 kts 87°
2026-04-25 03:49 27.81564 -84.72502 36946 ft 510 kts 83°
2026-04-25 03:50 27.81956 -84.64774 36947 ft 510 kts 81°
2026-04-25 03:50 27.82394 -84.57236 36946 ft 507 kts 81°
2026-04-25 03:51 27.82804 -84.49738 36946 ft 507 kts 82°
2026-04-25 03:51 27.83183 -84.42196 36947 ft 506 kts 82°
2026-04-25 03:52 27.83541 -84.34631 36945 ft 506 kts 83°
2026-04-25 03:52 27.83877 -84.27235 36947 ft 506 kts 82°
2026-04-25 03:53 27.84218 -84.19597 36943 ft 504 kts 83°
2026-04-25 03:53 27.84559 -84.11820 36944 ft 503 kts 83°
2026-04-25 03:54 27.84893 -84.04157 36948 ft 504 kts 83°
2026-04-25 03:54 27.85220 -83.96494 36948 ft 502 kts 83°
2026-04-25 03:55 27.85380 -83.92699 36842 ft 498 kts 83°
2026-04-25 03:55 27.85537 -83.88921 36533 ft 491 kts 83°
2026-04-25 03:55 27.85685 -83.85326 36077 ft 487 kts 83°
2026-04-25 03:55 27.85836 -83.81677 35588 ft 484 kts 83°
2026-04-25 03:56 27.85993 -83.77927 34835 ft 486 kts 83°
2026-04-25 03:56 27.86150 -83.74197 34084 ft 488 kts 83°
2026-04-25 03:56 27.86310 -83.70394 33346 ft 489 kts 84°
2026-04-25 03:56 27.86466 -83.66633 32602 ft 491 kts 84°
2026-04-25 03:57 27.86623 -83.62794 31818 ft 493 kts 84°
2026-04-25 03:57 27.86776 -83.59022 31244 ft 490 kts 84°
2026-04-25 03:57 27.86925 -83.55263 30658 ft 487 kts 84°
2026-04-25 03:57 27.87072 -83.51553 30063 ft 484 kts 84°
2026-04-25 03:58 27.87217 -83.47825 29446 ft 482 kts 85°
2026-04-25 03:58 27.87359 -83.44167 28847 ft 479 kts 85°
2026-04-25 03:58 27.87500 -83.40520 28241 ft 476 kts 85°
2026-04-25 03:58 27.87638 -83.36904 27636 ft 472 kts 85°
2026-04-25 03:59 27.87774 -83.33353 27049 ft 469 kts 85°
2026-04-25 03:59 27.87910 -83.29767 26445 ft 465 kts 85°
2026-04-25 03:59 27.88046 -83.26152 25984 ft 458 kts 86°
2026-04-25 03:59 27.88130 -83.22636 25941 ft 442 kts 87°
2026-04-25 04:00 27.88154 -83.19183 25947 ft 437 kts 88°
2026-04-25 04:00 27.88151 -83.15842 25950 ft 443 kts 88°
2026-04-25 04:00 27.88139 -83.12417 25947 ft 442 kts 88°
2026-04-25 04:00 27.88125 -83.09041 25949 ft 441 kts 88°
2026-04-25 04:01 27.88113 -83.05716 25946 ft 440 kts 88°
2026-04-25 04:01 27.88104 -83.02450 25946 ft 441 kts 88°
2026-04-25 04:01 27.88099 -82.99379 25950 ft 441 kts 88°
2026-04-25 04:01 27.88095 -82.96318 25951 ft 440 kts 88°
2026-04-25 04:02 27.88091 -82.93301 25951 ft 439 kts 88°
2026-04-25 04:02 27.88089 -82.90229 25953 ft 441 kts 88°
2026-04-25 04:02 27.88087 -82.87206 25956 ft 440 kts 88°
2026-04-25 04:02 27.88086 -82.84161 25946 ft 440 kts 88°
2026-04-25 04:03 27.88085 -82.81119 25719 ft 440 kts 88°
2026-04-25 04:03 27.88083 -82.78038 25490 ft 438 kts 88°
2026-04-25 04:03 27.88079 -82.75045 25267 ft 435 kts 88°
2026-04-25 04:03 27.88075 -82.72093 25045 ft 433 kts 88°
2026-04-25 04:04 27.88070 -82.69067 24803 ft 433 kts 88°
2026-04-25 04:04 27.88062 -82.65932 24255 ft 434 kts 88°
2026-04-25 04:04 27.88038 -82.62962 23819 ft 430 kts 88°
2026-04-25 04:04 27.87998 -82.59976 23348 ft 426 kts 88°
2026-04-25 04:05 27.87952 -82.57081 22870 ft 424 kts 89°
2026-04-25 04:05 27.87900 -82.53968 22278 ft 423 kts 89°
2026-04-25 04:05 27.87850 -82.51064 21796 ft 420 kts 88°
2026-04-25 04:05 27.87799 -82.48135 21334 ft 417 kts 88°
2026-04-25 04:06 27.87767 -82.45213 20856 ft 413 kts 86°
2026-04-25 04:06 27.87895 -82.42400 20606 ft 402 kts 81°
2026-04-25 04:06 27.88334 -82.39683 20255 ft 393 kts 71°
2026-04-25 04:06 27.89126 -82.37080 19995 ft 384 kts 64°
2026-04-25 04:07 27.90074 -82.34576 19971 ft 385 kts 62°
2026-04-25 04:07 27.91125 -82.32021 19964 ft 389 kts 61°
2026-04-25 04:07 27.92165 -82.29552 19962 ft 388 kts 61°
2026-04-25 04:07 27.93227 -82.27032 19963 ft 387 kts 61°
2026-04-25 04:08 27.94266 -82.24538 19964 ft 388 kts 61°
2026-04-25 04:08 27.95291 -82.22053 19967 ft 388 kts 62°
2026-04-25 04:08 27.96315 -82.19545 19876 ft 390 kts 62°
2026-04-25 04:08 27.97349 -82.16991 19642 ft 388 kts 62°
2026-04-25 04:09 27.98348 -82.14505 19452 ft 380 kts 62°
2026-04-25 04:09 27.99313 -82.12089 19185 ft 372 kts 62°
2026-04-25 04:09 28.00280 -82.09660 18691 ft 372 kts 62°
2026-04-25 04:09 28.01235 -82.07266 18110 ft 373 kts 62°
2026-04-25 04:10 28.02189 -82.04871 17759 ft 367 kts 62°
2026-04-25 04:10 28.03121 -82.02525 17275 ft 366 kts 62°
2026-04-25 04:10 28.04052 -82.00187 16785 ft 365 kts 62°
2026-04-25 04:10 28.04989 -81.97832 16413 ft 360 kts 62°
2026-04-25 04:11 28.06850 -81.93201 15966 ft 359 kts 62°
2026-04-25 04:11 28.07795 -81.90886 15960 ft 364 kts 62°
2026-04-25 04:11 28.08745 -81.88561 15959 ft 363 kts 62°
2026-04-25 04:12 28.09742 -81.86221 15962 ft 364 kts 60°
2026-04-25 04:12 28.10778 -81.83953 15963 ft 363 kts 58°
2026-04-25 04:12 28.11867 -81.81651 15964 ft 362 kts 58°
2026-04-25 04:12 28.12934 -81.79413 15967 ft 362 kts 58°
2026-04-25 04:13 28.13994 -81.77183 15852 ft 356 kts 58°
2026-04-25 04:13 28.15027 -81.75000 15510 ft 352 kts 58°
2026-04-25 04:13 28.16043 -81.72842 15103 ft 349 kts 58°
2026-04-25 04:13 28.17051 -81.70693 14675 ft 349 kts 58°
2026-04-25 04:14 28.18065 -81.68530 14153 ft 352 kts 59°
2026-04-25 04:14 28.19082 -81.66351 13754 ft 349 kts 59°
2026-04-25 04:14 28.20097 -81.64168 13311 ft 346 kts 59°
2026-04-25 04:14 28.21090 -81.62029 12896 ft 344 kts 59°
2026-04-25 04:15 28.22072 -81.59914 12502 ft 342 kts 59°
2026-04-25 04:15 28.23054 -81.57797 12158 ft 335 kts 59°
2026-04-25 04:15 28.24010 -81.55733 12013 ft 324 kts 59°
2026-04-25 04:15 28.24979 -81.53759 11916 ft 311 kts 55°
2026-04-25 04:16 28.26010 -81.51987 11772 ft 301 kts 52°
2026-04-25 04:16 28.27104 -81.50272 11452 ft 299 kts 50°
2026-04-25 04:16 28.28214 -81.48598 11123 ft 297 kts 50°
2026-04-25 04:16 28.29307 -81.46951 10792 ft 296 kts 50°
2026-04-25 04:17 28.30396 -81.45299 10509 ft 292 kts 50°
2026-04-25 04:17 28.31569 -81.43768 10357 ft 282 kts 41°
2026-04-25 04:17 28.32939 -81.42674 10091 ft 274 kts 20°
2026-04-25 04:17 28.34619 -81.42281 9792 ft 268 kts 360°
2026-04-25 04:18 28.36295 -81.42303 9636 ft 259 kts 357°
2026-04-25 04:18 28.37894 -81.42358 9518 ft 250 kts 357°
2026-04-25 04:18 28.39428 -81.42394 9364 ft 244 kts 358°
2026-04-25 04:18 28.40943 -81.42409 9091 ft 243 kts 358°
2026-04-25 04:19 28.42466 -81.42413 8777 ft 244 kts 359°
2026-04-25 04:19 28.43993 -81.42410 8521 ft 242 kts 359°
2026-04-25 04:19 28.45510 -81.42410 8229 ft 243 kts 359°
2026-04-25 04:19 28.47010 -81.42412 7945 ft 242 kts 359°
2026-04-25 04:20 28.48552 -81.42415 7667 ft 242 kts 359°
2026-04-25 04:20 28.50075 -81.42415 7389 ft 241 kts 359°
2026-04-25 04:20 28.51584 -81.42413 7126 ft 240 kts 359°
2026-04-25 04:20 28.53104 -81.42409 6865 ft 239 kts 359°
2026-04-25 04:21 28.54624 -81.42407 6603 ft 237 kts 359°
2026-04-25 04:21 28.56108 -81.42406 6306 ft 238 kts 359°
2026-04-25 04:21 28.57629 -81.42407 6016 ft 238 kts 359°
2026-04-25 04:21 28.59156 -81.42408 5741 ft 238 kts 360°
2026-04-25 04:22 28.60673 -81.42409 5442 ft 239 kts 360°
2026-04-25 04:22 28.62205 -81.42407 5244 ft 235 kts
2026-04-25 04:22 28.63666 -81.42411 5122 ft 228 kts 359°
2026-04-25 04:22 28.65132 -81.42436 5116 ft 226 kts 359°
2026-04-25 04:23 28.66592 -81.42468 4907 ft 229 kts 359°
2026-04-25 04:23 28.68072 -81.42500 4695 ft 227 kts 359°
2026-04-25 04:23 28.69540 -81.42530 4492 ft 227 kts 359°
2026-04-25 04:23 28.71003 -81.42558 4237 ft 228 kts 359°
2026-04-25 04:24 28.72480 -81.42572 3973 ft 227 kts
2026-04-25 04:24 28.73843 -81.42127 3946 ft 224 kts 32°
2026-04-25 04:24 28.74833 -81.41001 3941 ft 225 kts 62°
2026-04-25 04:24 28.75226 -81.39432 3954 ft 226 kts 86°
2026-04-25 04:25 28.75220 -81.37811 3935 ft 225 kts 92°
2026-04-25 04:25 28.75131 -81.36180 3940 ft 225 kts 98°
2026-04-25 04:25 28.74630 -81.34658 3921 ft 226 kts 127°
2026-04-25 04:25 28.73630 -81.33514 3959 ft 228 kts 141°
2026-04-25 04:26 28.72499 -81.32517 3950 ft 228 kts 143°
2026-04-25 04:26 28.71336 -81.31528 3952 ft 226 kts 143°
2026-04-25 04:26 28.70189 -81.30552 3954 ft 225 kts 143°
2026-04-25 04:26 28.69039 -81.29578 3955 ft 225 kts 145°
2026-04-25 04:27 28.67791 -81.28783 3952 ft 226 kts 160°
2026-04-25 04:27 28.66408 -81.28452 3959 ft 226 kts 176°
2026-04-25 04:27 28.64995 -81.28409 3957 ft 227 kts 180°
2026-04-25 04:27 28.63574 -81.28439 3887 ft 221 kts 180°
2026-04-25 04:28 28.62196 -81.28445 3599 ft 220 kts 179°
2026-04-25 04:28 28.60832 -81.28426 3276 ft 212 kts 179°
2026-04-25 04:28 28.59502 -81.28406 3014 ft 198 kts 179°
2026-04-25 04:28 28.58283 -81.28395 2780 ft 187 kts 179°
2026-04-25 04:29 28.57143 -81.28385 2560 ft 176 kts 179°
2026-04-25 04:29 28.56074 -81.28374 2337 ft 165 kts 178°
2026-04-25 04:29 28.55037 -81.28364 2153 ft 163 kts 178°
2026-04-25 04:29 28.53999 -81.28353 1949 ft 160 kts 178°
2026-04-25 04:30 28.53031 -81.28345 1794 ft 150 kts 178°
2026-04-25 04:30 28.52098 -81.28335 1570 ft 144 kts 178°
2026-04-25 04:30 28.51190 -81.28326 1428 ft 145 kts 178°
2026-04-25 04:30 28.50261 -81.28316 1237 ft 145 kts 178°
2026-04-25 04:31 28.49354 -81.28307 1068 ft 144 kts 178°
2026-04-25 04:31 28.48440 -81.28298 898 ft 144 kts 178°
2026-04-25 04:31 28.47514 -81.28289 725 ft 145 kts 178°
2026-04-25 04:31 28.46597 -81.28280 553 ft 145 kts 178°
2026-04-25 04:32 28.45649 -81.28271 379 ft 145 kts 178°
2026-04-25 04:32 28.44708 -81.28258 188 ft 147 kts 179°
2026-04-25 04:32 28.43783 -81.28252 88 ft 133 kts 178°
2026-04-25 04:32 28.43013 -81.28230 87 ft 100 kts 179°
2026-04-25 04:33 28.42508 -81.28230 87 ft 45 kts 182°
2026-04-25 04:33 28.42350 -81.28262 87 ft 15 kts 205°
2026-04-25 04:33 28.42298 -81.28307 87 ft 10 kts 241°
2026-04-25 04:33 28.42322 -81.28356 87 ft 9 kts 351°
2026-04-25 04:34 28.42382 -81.28365 87 ft 10 kts 355°
2026-04-25 04:34 28.42459 -81.28372 87 ft 13 kts 351°
2026-04-25 04:34 28.42493 -81.28439 86 ft 14 kts 259°
2026-04-25 04:34 28.42458 -81.28552 84 ft 18 kts 250°
2026-04-25 04:35 28.42419 -81.28675 84 ft 19 kts 250°
2026-04-25 04:35 28.42376 -81.28809 84 ft 20 kts 250°
2026-04-25 04:35 28.42335 -81.28944 84 ft 20 kts 251°
2026-04-25 04:35 28.42300 -81.29085 84 ft 21 kts 262°
2026-04-25 04:36 28.42285 -81.29230 85 ft 20 kts 269°
2026-04-25 04:36 28.42282 -81.29368 87 ft 19 kts 269°
2026-04-25 04:36 28.42279 -81.29507 87 ft 18 kts 268°
2026-04-25 04:36 28.42278 -81.29644 87 ft 21 kts 271°
2026-04-25 04:37 28.42278 -81.29789 89 ft 20 kts 270°
2026-04-25 04:37 28.42277 -81.29923 90 ft 19 kts 269°
2026-04-25 04:37 28.42274 -81.30061 90 ft 19 kts 269°
2026-04-25 04:37 28.42274 -81.30200 90 ft 19 kts 270°
2026-04-25 04:38 28.42272 -81.30351 88 ft 20 kts 268°
2026-04-25 04:38 28.42264 -81.30507 87 ft 21 kts 265°
2026-04-25 04:38 28.42252 -81.30662 86 ft 22 kts 265°
2026-04-25 04:38 28.42241 -81.30822 84 ft 23 kts 266°
2026-04-25 04:39 28.42234 -81.30987 84 ft 23 kts 272°
2026-04-25 04:39 28.42250 -81.31148 84 ft 22 kts 278°
2026-04-25 04:39 28.42266 -81.31306 84 ft 22 kts 275°
2026-04-25 04:39 28.42266 -81.31458 86 ft 20 kts 268°
2026-04-25 04:40 28.42263 -81.31575 87 ft 14 kts 268°
2026-04-25 04:40 28.42293 -81.31656 87 ft 13 kts 335°
2026-04-25 04:40 28.42382 -81.31666 87 ft 14 kts
2026-04-25 04:40 28.42445 -81.31635 87 ft 4 kts 32°
2026-04-25 04:41 28.42456 -81.31627 87 ft 0 kts 32°
2026-04-25 04:41 28.42457 -81.31627 87 ft 0 kts 32°
2026-04-25 04:41 28.42475 -81.31609 87 ft 6 kts 45°
2026-04-25 04:41 28.42503 -81.31551 87 ft 9 kts 72°
2026-04-25 04:42 28.42518 -81.31480 86 ft 9 kts 77°
2026-04-25 04:42 28.42533 -81.31406 84 ft 2 kts 73°
2026-04-25 04:42 28.42551 -81.31388 84 ft 3 kts 13°
2026-04-25 04:42 28.42575 -81.31382 84 ft 3 kts 12°
2026-04-25 04:43 28.42600 -81.31377 84 ft 4 kts
2026-04-25 04:43 28.42631 -81.31383 84 ft 3 kts 332°
2026-04-25 04:43 28.42650 -81.31394 85 ft 2 kts 333°
2026-04-25 04:43 28.42657 -81.31399 85 ft 0 kts 333°
2026-04-25 04:44 28.42673 -81.31407 85 ft 3 kts 332°
2026-04-25 04:44 28.42680 -81.31412 85 ft 0 kts 332°